Location: Newark
(38.6428°N, 100.1689°W)
Time: 19:46:09
(UTC+00:00)

LightSail 2 - Visible Passes

Search period start: 13 November 2019 00:00
Search period end: 23 November 2019 00:00
Orbit: 701 x 726 km, 24.0° (Epoch: 13 November)

Date Brightness Start Highest point End Pass type
(mag) Time Alt. Az. Time Alt. Az. Time Alt. Az.
13 Nov 7.3 11:38:12 11° SSW 11:40:44 16° S 11:43:47 10° SE visible
14 Nov 7.4 10:43:59 15° SSE 10:43:59 15° SSE 10:46:02 10° SE visible
14 Nov 7.4 12:25:17 10° SW 12:27:48 14° S 12:30:18 10° SSE visible
15 Nov 7.2 11:28:42 13° SSW 11:30:07 15° S 11:32:57 10° SSE visible
16 Nov 7.7 10:34:26 13° SSE 10:34:26 13° SSE 10:35:24 10° SSE visible
16 Nov 7.5 12:16:00 10° SSW 12:17:07 11° SSW 12:18:15 10° S visible
17 Nov 7.4 11:19:07 12° SSW 11:19:26 12° S 11:21:34 10° SSE visible
